Time,TemperatureF,DewpointF,PressureIn,WindDirection,WindDirectionDegrees,WindSpeedMPH,WindSpeedGustMPH,Humidity,HourlyPrecipIn,Conditions,Clouds,dailyrainin,SoftwareType,DateUTC
2013-03-19 03:00:00,42.7,39.7,29.69,North,-999,-999.0,0.0,89,0.00,,---,1.18,VWS V14.01,2013-03-19 07:00:00,
2013-03-19 03:06:00,43.9,41.2,29.70,North,-999,-999.0,0.0,90,0.00,,---,1.18,VWS V14.01,2013-03-19 07:06:00,
2013-03-19 04:00:00,43.9,41.2,29.68,North,-999,-999.0,0.0,90,0.00,,---,1.18,VWS V14.01,2013-03-19 08:00:00,
2013-03-19 04:06:00,43.9,41.2,29.68,North,-999,-999.0,0.0,90,0.00,,---,1.18,VWS V14.01,2013-03-19 08:06:00,
2013-03-19 06:00:00,43.6,40.9,29.69,North,-999,-999.0,0.0,90,0.00,,---,1.18,VWS V14.01,2013-03-19 10:00:00,
2013-03-19 06:06:00,43.6,40.9,29.69,North,-999,-999.0,0.0,90,0.00,,---,1.18,VWS V14.01,2013-03-19 10:06:00,
2013-03-19 07:00:00,43.6,41.2,29.70,North,-999,-999.0,0.0,91,0.00,,---,1.18,VWS V14.01,2013-03-19 11:00:00,
2013-03-19 07:06:00,43.6,41.2,29.70,North,-999,-999.0,0.0,91,0.00,,---,1.18,VWS V14.01,2013-03-19 11:06:00,
2013-03-19 08:00:00,44.5,42.0,29.74,North,-999,-999.0,0.0,91,0.00,,---,1.18,VWS V14.01,2013-03-19 12:00:00,
2013-03-19 08:05:00,44.5,42.0,29.74,North,-999,-999.0,0.0,91,0.00,,---,1.18,VWS V14.01,2013-03-19 12:05:00,
2013-03-19 11:01:00,67.1,51.8,29.78,North,-999,-999.0,0.0,58,0.00,,---,1.18,VWS V14.01,2013-03-19 15:01:00,
2013-03-19 11:06:00,68.0,51.2,29.78,North,-999,-999.0,0.0,55,0.00,,---,1.18,VWS V14.01,2013-03-19 15:06:00,
2013-03-19 11:12:00,68.9,51.1,29.78,North,-999,-999.0,0.0,53,0.00,,---,1.18,VWS V14.01,2013-03-19 15:12:00,
2013-03-19 11:18:00,68.4,48.0,29.78,North,-999,-999.0,0.0,48,0.00,,---,1.18,VWS V14.01,2013-03-19 15:18:00,
2013-03-19 11:24:00,66.4,48.3,29.78,North,-999,-999.0,0.0,52,0.00,,---,1.18,VWS V14.01,2013-03-19 15:24:00,
2013-03-19 11:29:00,68.4,48.5,29.78,North,-999,-999.0,0.0,49,0.00,,---,1.18,VWS V14.01,2013-03-19 15:29:00,
2013-03-19 11:34:00,69.1,50.8,29.78,North,-999,-999.0,0.0,52,0.00,,---,1.18,VWS V14.01,2013-03-19 15:34:00,
2013-03-19 11:39:00,70.6,46.4,29.78,North,-999,-999.0,0.0,42,0.00,,---,1.18,VWS V14.01,2013-03-19 15:39:00,
2013-03-19 11:44:00,71.1,47.5,29.78,North,-999,-999.0,0.0,43,0.00,,---,1.18,VWS V14.01,2013-03-19 15:44:00,
2013-03-19 11:49:00,71.5,45.9,29.79,North,-999,-999.0,0.0,40,0.00,,---,1.18,VWS V14.01,2013-03-19 15:49:00,
2013-03-19 11:54:00,71.8,43.4,29.79,North,-999,-999.0,0.0,36,0.00,,---,1.18,VWS V14.01,2013-03-19 15:54:00,
2013-03-19 11:59:00,72.4,45.4,29.79,North,-999,-999.0,0.0,38,0.00,,---,1.18,VWS V14.01,2013-03-19 15:59:00,
2013-03-19 12:05:00,72.4,45.4,29.79,North,-999,-999.0,0.0,38,0.00,,---,1.18,VWS V14.01,2013-03-19 16:05:00,
2013-03-19 12:11:00,73.4,45.6,29.78,North,-999,-999.0,0.0,37,0.00,,---,1.18,VWS V14.01,2013-03-19 16:11:00,
2013-03-19 12:17:00,73.8,42.9,29.79,North,-999,-999.0,0.0,33,0.00,,---,1.18,VWS V14.01,2013-03-19 16:17:00,
2013-03-19 12:23:00,75.1,44.8,29.79,North,-999,-999.0,0.0,34,0.00,,---,1.18,VWS V14.01,2013-03-19 16:23:00,
2013-03-19 12:29:00,75.1,44.8,29.79,North,-999,-999.0,0.0,34,0.00,,---,1.18,VWS V14.01,2013-03-19 16:29:00,
2013-03-19 14:00:00,78.3,42.5,29.77,North,-999,-999.0,0.0,28,0.00,,---,1.18,VWS V14.01,2013-03-19 18:00:00,
2013-03-19 14:06:00,78.3,42.5,29.77,North,-999,-999.0,0.0,28,0.00,,---,1.18,VWS V14.01,2013-03-19 18:06:00,
2013-03-19 16:00:00,77.4,29.2,29.74,North,-999,-999.0,0.0,17,0.00,,---,1.18,VWS V14.01,2013-03-19 20:00:00,
2013-03-19 16:06:00,77.4,29.2,29.74,North,-999,-999.0,0.0,17,0.00,,---,1.18,VWS V14.01,2013-03-19 20:06:00,
2013-03-19 17:00:00,77.2,26.0,29.75,North,-999,-999.0,0.0,15,0.00,,---,1.18,VWS V14.01,2013-03-19 21:00:00,
2013-03-19 17:06:00,77.2,26.0,29.75,North,-999,-999.0,0.0,15,0.00,,---,1.18,VWS V14.01,2013-03-19 21:06:00,
2013-03-19 17:59:00,76.3,25.3,29.76,North,-999,-999.0,0.0,15,0.00,,---,1.18,VWS V14.01,2013-03-19 21:59:00,
2013-03-19 18:05:00,75.8,26.5,29.76,North,-999,-999.0,0.0,16,0.00,,---,1.18,VWS V14.01,2013-03-19 22:05:00,
2013-03-19 18:10:00,76.0,26.6,29.77,North,-999,-999.0,0.0,16,0.00,,---,1.18,VWS V14.01,2013-03-19 22:10:00,
2013-03-19 18:15:00,76.0,26.6,29.77,North,-999,-999.0,0.0,16,0.00,,---,1.18,VWS V14.01,2013-03-19 22:15:00,
2013-03-19 18:21:00,74.9,24.2,29.77,North,-999,-999.0,0.0,15,0.00,,---,1.18,VWS V14.01,2013-03-19 22:21:00,
2013-03-19 18:26:00,73.8,24.8,29.77,North,-999,-999.0,0.0,16,0.00,,---,1.18,VWS V14.01,2013-03-19 22:26:00,
2013-03-19 18:31:00,73.4,24.5,29.77,North,-999,-999.0,0.0,16,0.00,,---,1.18,VWS V14.01,2013-03-19 22:31:00,
2013-03-19 18:37:00,73.4,24.5,29.78,North,-999,-999.0,0.0,16,0.00,,---,1.18,VWS V14.01,2013-03-19 22:37:00,
2013-03-19 18:42:00,72.9,24.1,29.78,North,-999,-999.0,0.0,16,0.00,,---,1.18,VWS V14.01,2013-03-19 22:42:00,
2013-03-19 18:47:00,73.1,24.3,29.78,North,-999,-999.0,0.0,16,0.00,,---,1.18,VWS V14.01,2013-03-19 22:47:00,
2013-03-19 18:53:00,72.4,25.2,29.78,North,-999,-999.0,0.0,17,0.00,,---,1.18,VWS V14.01,2013-03-19 22:53:00,
2013-03-19 18:58:00,70.9,25.3,29.78,North,-999,-999.0,0.0,18,0.00,,---,1.18,VWS V14.01,2013-03-19 22:58:00,
2013-03-19 19:03:00,70.4,24.9,29.78,North,-999,-999.0,0.0,18,0.00,,---,1.18,VWS V14.01,2013-03-19 23:03:00,
2013-03-19 19:08:00,69.7,25.6,29.79,North,-999,-999.0,0.0,19,0.00,,---,1.18,VWS V14.01,2013-03-19 23:08:00,
2013-03-19 19:14:00,68.2,24.4,29.79,North,-999,-999.0,0.0,19,0.00,,---,1.18,VWS V14.01,2013-03-19 23:14:00,
2013-03-19 19:20:00,66.8,23.2,29.79,North,-999,-999.0,0.0,19,0.00,,---,1.18,VWS V14.01,2013-03-19 23:20:00,
2013-03-19 19:25:00,66.1,25.1,29.79,North,-999,-999.0,0.0,21,0.00,,---,1.18,VWS V14.01,2013-03-19 23:25:00,
2013-03-19 19:30:00,65.5,24.6,29.79,North,-999,-999.0,0.0,21,0.00,,---,1.18,VWS V14.01,2013-03-19 23:30:00,
2013-03-19 19:35:00,65.0,25.3,29.79,North,-999,-999.0,0.0,22,0.00,,---,1.18,VWS V14.01,2013-03-19 23:35:00,
2013-03-19 19:40:00,64.3,24.7,29.80,North,-999,-999.0,0.0,22,0.00,,---,1.18,VWS V14.01,2013-03-19 23:40:00,
2013-03-19 19:45:00,63.7,24.2,29.80,North,-999,-999.0,0.0,22,0.00,,---,1.18,VWS V14.01,2013-03-19 23:45:00,
2013-03-19 19:50:00,63.4,25.0,29.80,North,-999,-999.0,0.0,23,0.00,,---,1.18,VWS V14.01,2013-03-19 23:50:00,
2013-03-19 19:55:00,63.0,24.6,29.81,North,-999,-999.0,0.0,23,0.00,,---,1.18,VWS V14.01,2013-03-19 23:55:00,
2013-03-19 20:01:00,62.6,24.3,29.81,North,-999,-999.0,0.0,23,0.00,,---,1.18,VWS V14.01,2013-03-20 00:01:00,
2013-03-19 20:06:00,62.1,24.9,29.81,North,-999,-999.0,0.0,24,0.00,,---,1.18,VWS V14.01,2013-03-20 00:06:00,
2013-03-19 20:11:00,61.7,23.5,29.81,North,-999,-999.0,0.0,23,0.00,,---,1.18,VWS V14.01,2013-03-20 00:11:00,
2013-03-19 20:16:00,61.4,24.3,29.82,North,-999,-999.0,0.0,24,0.00,,---,1.18,VWS V14.01,2013-03-20 00:16:00,
2013-03-19 20:21:00,60.7,24.7,29.82,North,-999,-999.0,0.0,25,0.00,,---,1.18,VWS V14.01,2013-03-20 00:21:00,
2013-03-19 20:26:00,59.9,24.0,29.82,North,-999,-999.0,0.0,25,0.00,,---,1.18,VWS V14.01,2013-03-20 00:26:00,
2013-03-19 20:31:00,59.4,25.4,29.82,North,-999,-999.0,0.0,27,0.00,,---,1.18,VWS V14.01,2013-03-20 00:31:00,
2013-03-19 20:37:00,58.5,25.5,29.83,North,-999,-999.0,0.0,28,0.00,,---,1.18,VWS V14.01,2013-03-20 00:37:00,
2013-03-19 20:42:00,57.6,25.6,29.83,North,-999,-999.0,0.0,29,0.00,,---,1.18,VWS V14.01,2013-03-20 00:42:00,
2013-03-19 20:47:00,56.9,25.8,29.83,North,-999,-999.0,0.0,30,0.00,,---,1.18,VWS V14.01,2013-03-20 00:47:00,
2013-03-19 20:52:00,56.0,25.8,29.84,North,-999,-999.0,0.0,31,0.00,,---,1.18,VWS V14.01,2013-03-20 00:52:00,
2013-03-19 20:57:00,55.4,26.0,29.84,North,-999,-999.0,0.0,32,0.00,,---,1.18,VWS V14.01,2013-03-20 00:57:00,
2013-03-19 21:03:00,55.1,25.8,29.84,North,-999,-999.0,0.0,32,0.00,,---,1.18,VWS V14.01,2013-03-20 01:03:00,
2013-03-19 21:08:00,54.9,25.6,29.84,North,-999,-999.0,0.0,32,0.00,,---,1.18,VWS V14.01,2013-03-20 01:08:00,
2013-03-19 21:13:00,54.7,25.4,29.84,North,-999,-999.0,0.0,32,0.00,,---,1.18,VWS V14.01,2013-03-20 01:13:00,
2013-03-19 21:18:00,54.2,25.7,29.84,North,-999,-999.0,0.0,33,0.00,,---,1.18,VWS V14.01,2013-03-20 01:18:00,
2013-03-19 21:23:00,53.3,25.7,29.84,North,-999,-999.0,0.0,34,0.00,,---,1.18,VWS V14.01,2013-03-20 01:23:00,
2013-03-19 21:28:00,52.6,26.4,29.85,North,-999,-999.0,0.0,36,0.00,,---,1.18,VWS V14.01,2013-03-20 01:28:00,
2013-03-19 21:33:00,52.0,26.5,29.85,North,-999,-999.0,0.0,37,0.00,,---,1.18,VWS V14.01,2013-03-20 01:33:00,
2013-03-19 21:38:00,51.5,26.8,29.85,North,-999,-999.0,0.0,38,0.00,,---,1.18,VWS V14.01,2013-03-20 01:38:00,
2013-03-19 21:43:00,50.9,26.8,29.85,North,-999,-999.0,0.0,39,0.00,,---,1.18,VWS V14.01,2013-03-20 01:43:00,
2013-03-19 21:48:00,50.4,27.0,29.85,North,-999,-999.0,0.0,40,0.00,,---,1.18,VWS V14.01,2013-03-20 01:48:00,
2013-03-19 21:53:00,50.0,27.2,29.85,North,-999,-999.0,0.0,41,0.00,,---,1.18,VWS V14.01,2013-03-20 01:53:00,
2013-03-19 21:58:00,49.3,27.2,29.85,North,-999,-999.0,0.0,42,0.00,,---,1.18,VWS V14.01,2013-03-20 01:58:00,
2013-03-19 22:04:00,49.0,26.9,29.85,North,-999,-999.0,0.0,42,0.00,,---,1.18,VWS V14.01,2013-03-20 02:04:00,
2013-03-19 22:09:00,48.6,27.7,29.86,North,-999,-999.0,0.0,44,0.00,,---,1.18,VWS V14.01,2013-03-20 02:09:00,
2013-03-19 22:14:00,48.2,27.3,29.86,North,-999,-999.0,0.0,44,0.00,,---,1.18,VWS V14.01,2013-03-20 02:14:00,
2013-03-19 22:19:00,47.9,27.6,29.86,North,-999,-999.0,0.0,45,0.00,,---,1.18,VWS V14.01,2013-03-20 02:19:00,
2013-03-19 22:24:00,47.5,27.8,29.86,North,-999,-999.0,0.0,46,0.00,,---,1.18,VWS V14.01,2013-03-20 02:24:00,
2013-03-19 22:29:00,47.2,27.5,29.86,North,-999,-999.0,0.0,46,0.00,,---,1.18,VWS V14.01,2013-03-20 02:29:00,
2013-03-19 22:34:00,47.0,27.8,29.86,North,-999,-999.0,0.0,47,0.00,,---,1.18,VWS V14.01,2013-03-20 02:34:00,
2013-03-19 22:39:00,46.6,27.5,29.87,North,-999,-999.0,0.0,47,0.00,,---,1.18,VWS V14.01,2013-03-20 02:39:00,
2013-03-19 22:44:00,46.4,28.3,29.87,North,-999,-999.0,0.0,49,0.00,,---,1.18,VWS V14.01,2013-03-20 02:44:00,
2013-03-19 22:49:00,46.1,28.0,29.86,North,-999,-999.0,0.0,49,0.00,,---,1.18,VWS V14.01,2013-03-20 02:49:00,
2013-03-19 22:54:00,45.9,28.3,29.86,North,-999,-999.0,0.0,50,0.00,,---,1.18,VWS V14.01,2013-03-20 02:54:00,
2013-03-19 22:59:00,45.7,28.1,29.86,North,-999,-999.0,0.0,50,0.00,,---,1.18,VWS V14.01,2013-03-20 02:59:00,
2013-03-19 23:04:00,45.5,28.0,29.87,North,-999,-999.0,0.0,50,0.00,,---,1.18,VWS V14.01,2013-03-20 03:04:00,
2013-03-19 23:05:00,45.5,28.4,29.87,North,-999,-999.0,0.0,51,0.00,,---,1.18,VWS V14.01,2013-03-20 03:05:00,
2013-03-19 23:10:00,45.5,28.4,29.87,North,-999,-999.0,0.0,51,0.00,,---,1.18,VWS V14.01,2013-03-20 03:10:00,